Zurück zum Katalog

THOR ABLESTAR DEB

AktivLEO
NORAD 5715·DEBRIS·🇺🇸 United States

Gestartet Jun 29, 1961 von Cape Canaveral Space Force Station

Loading…

Nächste Überflüge (nächste 24 Stunden)

TLE

AktuellSource: Space-Track

Epoche: Sep 13, 2026, 02:08 UTC

1 05715U 61015JS  26256.08942030  .00000623  00000-0  80137-3 0  9991
2 05715  66.5589 250.1882 0152279   1.1661  62.7230 13.64501094213724

Verfolge THOR ABLESTAR DEB in Echtzeit mit AllMySat

Download on the App Store